Weather observations for the past three days for
Ruby
Metric (Imperial)
Date Time (akdt) Wind (kph) Vis. (km) Weather Sky Cond. Temperature (ºC) Relative Humidity Wind Chill (°C) Heat Index (°C) Pressure Precipitation (cm)
Air Dwpt 6 hour altimeter (cm) sea level (mb) 1 hr 3 hr 6 hr
Max. Min.
16 02:56 Calm 16.09 Fair CLR 12.8 5 59% 76.61 1022.0
16 01:56 Calm 16.09 Fair CLR 13.3 5.6 60% 76.63 1022.1
16 00:56 Vrbl 6 16.09 Fair CLR 14.4 5.6 56% 76.61 1022.0
15 23:56 Calm 16.09 Fair CLR 16.1 5.6 50% 76.61 1021.8
15 22:56 Calm 16.09 Fair CLR 17.8 5 43% 76.56 1020.9
15 20:56 Vrbl 6 16.09 Fair CLR 19.4 4.4 37% 76.53 1020.8
15 19:56 Vrbl 7 16.09 Fair CLR 19.4 5 39% 76.53 1020.8
15 18:56 Vrbl 7 16.09 Fair CLR 20 5.6 39% 76.53 1020.9
15 17:56 Vrbl 9 16.09 Fair CLR 20 5.6 39% 76.56 1021.1
15 16:56 Vrbl 7 16.09 Fair CLR 20 5 38% 76.56 1021.3
15 15:56 Vrbl 7 16.09 Fair CLR 19.4 4.4 19.4 14.4 37% 76.58 1021.6
15 14:56 Vrbl 7 16.09 Fair CLR 18.3 5 42% 76.61 1021.7
15 13:56 Vrbl 11 16.09 Fair CLR 17.2 4.4 43% 76.63 1022.1
15 12:56 W 11 16.09 Fair CLR 16.7 5 46% 76.68 1022.8
15 11:56 Vrbl 9 16.09 Fair CLR 16.7 5 46% 76.66 1022.7
15 10:56 Vrbl 9 16.09 Fair CLR 15 4.4 49% 76.68 1022.9
15 09:56 Vrbl 7 16.09 Fair CLR 14.4 5 14.4 10.6 53% 76.76 1023.9
15 08:56 Calm 16.09 Fair CLR 13.3 5 57% 76.73 1023.4
15 07:56 Vrbl 6 16.09 Fair CLR 12.2 6.7 69% 76.76 1024.0
15 06:56 NW 6 16.09 Fair CLR 11.7 5.6 66% 76.76 1024.0
15 05:56 NW 6 16.09 Fair CLR 11.1 4.4 64% 76.76 1023.8
15 04:56 Vrbl 6 16.09 Fair CLR 11.1 4.4 64% 76.68 1023.0
15 03:56 Calm 16.09 Fair CLR 11.7 3.9 17.2 11.1 59% 76.76 1023.8
15 02:56 Calm 16.09 Fair CLR 11.7 4.4 61% 76.73 1023.4
15 01:56 Vrbl 6 16.09 Fair CLR 12.8 5 59% 76.68 1023.0
15 00:56 Vrbl 6 16.09 Fair CLR 13.3 5 57% 76.66 1022.5
14 23:56 Calm 16.09 Fair CLR 14.4 5.6 56% 76.63 1022.2
14 22:56 Vrbl 6 16.09 Fair CLR 15.6 6.1 53% 76.63 1022.0
14 21:56 Vrbl 7 16.09 Fair CLR 17.2 6.1 20 17.2 48% 76.61 1021.7
14 20:56 Vrbl 7 16.09 Fair CLR 18.3 6.1 45% 76.58 1021.3
14 19:56 Vrbl 7 16.09 Fair CLR 18.9 6.7 45% 76.58 1021.4
14 18:56 Vrbl 6 16.09 Fair CLR 18.9 6.1 43% 76.58 1021.5
14 17:56 W 13 16.09 Fair CLR 18.9 6.1 43% 76.58 1021.6
14 16:56 W 13 16.09 Fair CLR 20 6.1 40% 76.61 1021.5
14 15:56 Vrbl 11 16.09 Fair CLR 18.9 5.6 19.4 13.9 42% 76.61 1021.8
14 14:56 W 13 16.09 Fair CLR 18.3 5.6 43% 76.63 1022.1
14 13:56 Vrbl 11 16.09 Fair CLR 17.8 5.6 45% 76.66 1022.5
14 12:56 W 13 16.09 Fair CLR 17.2 5 45% 76.71 1023.3
14 11:56 Vrbl 7 16.09 Fair CLR 16.1 5.6 50% 76.73 1023.5
14 10:56 Vrbl 7 14.48 Fair CLR 15.6 6.1 53% 76.71 1023.0
14 09:56 Vrbl 7 16.09 Fair CLR 13.9 7.2 14.4 8.9 64% 76.76 1023.7
14 08:56 Vrbl 9 16.09 Fair CLR 13.9 7.2 64% 76.73 1023.5
14 07:56 Vrbl 6 16.09 Fair CLR 12.2 7.2 72% 76.73 1023.6
14 06:56 Calm 16.09 Fair CLR 12.2 7.2 72% 76.73 1023.6
14 05:56 Calm 16.09 Fair CLR 11.7 6.1 69% 76.71 1023.2
14 04:56 SW 6 16.09 Fair CLR 10 6.7 80% 76.71 1023.0
14 03:56 Calm 16.09 Fair CLR 10.6 7.2 18.3 10.6 80% 76.63 1022.2
14 02:56 Calm 16.09 Fair CLR 11.7 7.8 77% 76.66 1022.3
14 01:56 W 6 16.09 Fair CLR 12.8 5.6 62% 76.63 1022.0
14 00:56 W 7 16.09 Fair CLR 14.4 5.6 56% 76.61 1021.6
13 23:56 Calm 16.09 Fair CLR 16.1 6.7 54% 76.53 1020.7
13 22:56 Vrbl 6 16.09 Fair CLR 17.2 6.1 48% 76.5 1020.3
13 21:56 Calm 16.09 A Few Clouds FEW120 18.3 6.1 19.4 17.2 45% 76.5 1020.3
13 20:56 Calm 16.09 Fair CLR 17.8 7.2 50% 76.5 1020.3
13 19:56 Vrbl 11 16.09 Fair CLR 18.9 8.3 50% 76.5 1020.2
13 18:56 Calm 16.09 Fair CLR 18.9 7.8 49% 76.5 1020.3
13 17:56 Vrbl 6 16.09 Fair CLR 18.3 7.2 49% 76.53 1020.6
13 16:56 Vrbl 11 16.09 Fair CLR 18.3 7.8 51% 76.56 1020.9
13 15:56 Vrbl 9 16.09 A Few Clouds FEW041 17.2 7.8 17.8 11.7 54% 76.61 1021.7
13 14:56 Vrbl 6 16.09 Fair CLR 16.7 8.3 58% 76.63 1021.9
13 13:56 Vrbl 9 16.09 Fair CLR 15 7.8 62% 76.63 1022.1
13 12:56 Vrbl 9 16.09 Overcast OVC100 14.4 7.2 62% 76.58 1021.5
13 11:56 W 9 16.09 Partly Cloudy SCT095 13.9 7.2 64% 76.63 1022.2
13 10:56 Vrbl 7 16.09 Fair CLR 12.8 7.8 72% 76.63 1022.1
13 09:56 Vrbl 9 16.09 Fair CLR 11.7 7.8 11.7 10.6 77% 76.56 1021.2
13 08:56 Vrbl 6 16.09 A Few Clouds FEW060 11.1 8.3 83% 76.61 1021.8
13 07:56 SW 9 16.09 Overcast OVC060 10.6 7.8 83% 76.56 1021.3
13 06:56 S 7 16.09 Overcast OVC060 10.6 7.8 83% 76.53 1020.9
13 05:56 Vrbl 7 16.09 Overcast BKN050 OVC065 11.1 9.4 89% 76.5 1020.3
13 04:56 W 6 16.09 Overcast OVC055 11.1 10 93% 76.48 1020.0
13 03:56 W 7 16.09 Overcast SCT049 OVC065 11.1 10 13.9 11.1 93% 76.45 1019.6 0.03 0.15
Date Time (akdt) Wind (kph) Vis. (km) Weather Sky Cond. Air Dwpt Max. Min. Relative Humidity Wind Chill (°C) Heat Index (°C) altimeter (cm) sea level (mb) 1 hr 3 hr 6 hr
6 hour
Temperature (ºC) Pressure Precipitation (cm)